Weather History for KTBN - December, 2012

Change the Weather History Date:

Saturday, December 15, 2012

  Actual Average Record
Temperature  
Mean Temperature 53 °F -  
Max Temperature 64 °F 42 °F 64 °F (2002)
Min Temperature 42 °F 28 °F 10 °F (2008)
Degree Days  
Heating Degree Days 12    
Growing Degree Days 3 (Base 50)    
Moisture  
Dew Point 44 °F    
Average Humidity 81    
Maximum Humidity 100    
Minimum Humidity 44    
Precipitation  
Precipitation 0.08 in - - ()
Sea Level Pressure  
Sea Level Pressure 29.73 in    
Wind  
Wind Speed 14 mph (South)    
Max Wind Speed 18 mph    
Max Gust Speed 32 mph    
Visibility 10 miles    
Events Rain    
Averages and records for this station are not official NWS values.
T = Trace of Precipitation, MM = Missing Value Source: NWS Daily Summary

Daily Weather History Graph

Daily Weather History Graph

Search for Another Location

Airport or City:

Trip Planner

Search our weather history database for the weather conditions in past years. The results will help you decide how hot, cold, wet, or windy it might be!

Date:

Astronomy

Dec. 15, 2012 Rise Set
Actual Time 7:16 AM CST 4:51 PM CST
Civil Twilight 6:47 AM CST 5:20 PM CST
Nautical Twilight 6:14 AM CST 5:53 PM CST
Astronomical Twilight 5:42 AM CST 6:25 PM CST
Moon 9:11 AM CST (12/15) 7:53 PM CST (12/15)
Length of Visible Light 10h 32m
Length of Day
9h 34m
Waxing Crescent, 8% of the Moon is Illuminated
Dec 15
Waxing Crescent
Dec 19
First Quarter
Dec 28
Full
Jan 4
Last Quarter
Jan 11
New

Hourly Weather History & Observations

Time (CST) Temp. Windchill Dew Point Humidity Pressure Visibility Wind Dir Wind Speed Gust Speed Precip Events Conditions
12:35 AM 42.8 °F 34.8 °F 42.8 °F 100% 29.84 in 10.0 mi SSE 17.3 mph 25.3 mph N/A   Overcast
12:55 AM 43.7 °F 36.0 °F 43.2 °F 98% 29.82 in 10.0 mi SSE 17.3 mph 26.5 mph 0.05 in   Overcast
1:55 AM 44.8 °F 37.7 °F 42.6 °F 92% 29.81 in 10.0 mi SSE 16.1 mph 26.5 mph N/A   Overcast
1:57 AM 44.6 °F 37.4 °F 42.8 °F 93% 29.80 in 10.0 mi SSE 16.1 mph 26.5 mph N/A   Light Drizzle
1:58 AM 44.6 °F 37.4 °F 42.8 °F 93% 29.80 in 10.0 mi SSE 16.1 mph 26.5 mph N/A   Light Drizzle
2:06 AM 44.6 °F 37.2 °F 42.8 °F 93% 29.79 in 10.0 mi SSE 17.3 mph 24.2 mph N/A   Overcast
2:13 AM 44.6 °F 37.8 °F 42.8 °F 93% 29.79 in 10.0 mi SSE 15.0 mph 24.2 mph N/A   Light Drizzle
2:15 AM 44.6 °F 38.4 °F 42.8 °F 93% 29.79 in 10.0 mi SSE 12.7 mph 24.2 mph N/A   Light Drizzle
2:22 AM 44.6 °F 37.4 °F 42.8 °F 93% 29.79 in 10.0 mi SSE 16.1 mph - N/A   Overcast
2:44 AM 44.6 °F 38.4 °F 42.8 °F 93% 29.79 in 9.0 mi SSE 12.7 mph 21.9 mph N/A Rain Light Rain
2:52 AM 44.6 °F 37.4 °F 44.6 °F 100% 29.79 in 6.0 mi SSE 16.1 mph 20.7 mph N/A Rain Light Rain
2:54 AM 44.6 °F 37.8 °F 44.6 °F 100% 29.78 in 7.0 mi South 15.0 mph 20.7 mph N/A Rain Light Rain
2:55 AM 45.0 °F 38.2 °F 43.9 °F 96% 29.78 in 8.0 mi SSE 15.0 mph 23.0 mph 0.03 in Rain Light Rain
2:57 AM 44.6 °F 38.4 °F 44.6 °F 100% 29.78 in 10.0 mi SSE 12.7 mph 23.0 mph N/A Rain Light Rain
3:03 AM 44.6 °F 37.4 °F 44.6 °F 100% 29.78 in 10.0 mi SSE 16.1 mph 23.0 mph N/A   Overcast
3:45 AM 44.6 °F 38.1 °F 44.6 °F 100% 29.77 in 10.0 mi SSE 13.8 mph 19.6 mph N/A   Light Drizzle
3:46 AM 44.6 °F 38.4 °F 44.6 °F 100% 29.78 in 10.0 mi South 12.7 mph 19.6 mph N/A   Light Drizzle
3:55 AM 45.7 °F 39.5 °F 44.1 °F 94% 29.77 in 10.0 mi SSE 13.8 mph 21.9 mph 0.00 in Rain Light Rain
3:56 AM 46.4 °F 40.7 °F 44.6 °F 93% 29.77 in 10.0 mi South 12.7 mph 21.9 mph N/A   Overcast
4:04 AM 46.4 °F 40.1 °F 44.6 °F 93% 29.76 in 10.0 mi SSE 15.0 mph 21.9 mph N/A   Overcast
4:55 AM 46.9 °F - 45.7 °F 95% 29.75 in 10.0 mi South 12.7 mph 19.6 mph N/A   Overcast
5:55 AM 49.1 °F - 47.5 °F 94% 29.71 in 10.0 mi South 15.0 mph 26.5 mph N/A   Overcast
6:55 AM 49.8 °F - 48.4 °F 95% 29.70 in 10.0 mi South 16.1 mph 27.6 mph N/A   Overcast
7:36 AM 50.0 °F - 48.2 °F 94% 29.70 in 10.0 mi South 16.1 mph 25.3 mph N/A   Overcast
7:37 AM 50.0 °F - 48.2 °F 94% 29.70 in 10.0 mi South 17.3 mph 25.3 mph N/A   Overcast
7:43 AM 50.0 °F - 48.2 °F 94% 29.70 in 10.0 mi South 13.8 mph 25.3 mph N/A   Overcast
7:55 AM 50.9 °F - 48.4 °F 91% 29.68 in 10.0 mi South 16.1 mph 28.8 mph N/A   Overcast
8:06 AM 50.0 °F - 48.2 °F 94% 29.69 in 10.0 mi South 12.7 mph 27.6 mph N/A   Mostly Cloudy
8:55 AM 52.7 °F - 48.7 °F 86% 29.69 in 10.0 mi SSW 11.5 mph 25.3 mph N/A   Scattered Clouds
9:08 AM 53.6 °F - 48.2 °F 82% 29.68 in 10.0 mi South 13.8 mph 25.3 mph N/A   Mostly Cloudy
9:30 AM 55.4 °F - 46.4 °F 72% 29.68 in 10.0 mi SSW 16.1 mph 32.2 mph N/A   Mostly Cloudy
9:47 AM 55.4 °F - 48.2 °F 77% 29.68 in 10.0 mi SSW 15.0 mph 28.8 mph N/A   Mostly Cloudy
9:55 AM 55.6 °F - 47.3 °F 74% 29.68 in 10.0 mi SSW 16.1 mph 27.6 mph N/A   Mostly Cloudy
10:03 AM 57.2 °F - 46.4 °F 67% 29.68 in 10.0 mi SSW 15.0 mph 27.6 mph N/A   Mostly Cloudy
10:06 AM 57.2 °F - 46.4 °F 67% 29.68 in 10.0 mi SSW 18.4 mph 27.6 mph N/A   Scattered Clouds
10:55 AM 58.8 °F - 46.6 °F 64% 29.67 in 10.0 mi SW 15.0 mph 27.6 mph N/A   Scattered Clouds
11:55 AM 61.5 °F - 45.7 °F 56% 29.65 in 10.0 mi SW 8.1 mph 25.3 mph N/A   Partly Cloudy
12:55 PM 63.5 °F - 43.3 °F 48% 29.63 in 10.0 mi SW 15.0 mph 25.3 mph N/A   Clear
1:55 PM 64.0 °F - 43.2 °F 47% 29.62 in 10.0 mi WSW 11.5 mph 21.9 mph N/A   Clear
2:55 PM 64.4 °F - 42.4 °F 45% 29.62 in 10.0 mi SW 9.2 mph 16.1 mph N/A   Clear
3:55 PM 63.7 °F - 41.5 °F 44% 29.64 in 10.0 mi SW 8.1 mph 23.0 mph N/A   Clear
4:55 PM 60.4 °F - 40.5 °F 48% 29.66 in 10.0 mi Variable 5.8 mph - N/A   Clear
5:55 PM 57.0 °F - 39.7 °F 52% 29.68 in 10.0 mi WSW 5.8 mph - N/A   Clear
6:55 PM 53.6 °F - 39.9 °F 60% 29.71 in 10.0 mi SW 4.6 mph - N/A   Clear
7:55 PM 52.3 °F - 39.9 °F 63% 29.73 in 10.0 mi SSW 4.6 mph - N/A   Clear
8:55 PM 50.9 °F - 39.2 °F 64% 29.72 in 10.0 mi SSW 6.9 mph - N/A   Clear
9:55 PM 49.5 °F - 38.7 °F 66% 29.73 in 10.0 mi SW 6.9 mph - N/A   Clear
10:55 PM 48.6 °F - 38.1 °F 67% 29.72 in 10.0 mi SW 5.8 mph - N/A   Clear
11:55 PM 47.5 °F - 37.8 °F 69% 29.72 in 10.0 mi SW 5.8 mph - N/A   Clear